www.pogodaiklimat.ru
ПОГОДА в Санфорде
Время
и дата
20:56 29.01
21:56 29.01
22:56 29.01
23:56 29.01
00:56 30.01
01:56 30.01
02:56 30.01
03:56 30.01
04:56 30.01
05:56 30.01
06:56 30.01
07:56 30.01
08:56 30.01
09:08 30.01
09:25 30.01
09:56 30.01
10:56 30.01
11:56 30.01
12:56 30.01
13:56 30.01
14:56 30.01
15:45 30.01
15:56 30.01
16:29 30.01
16:56 30.01
17:56 30.01
18:19 30.01
18:56 30.01
19:56 30.01
20:28 30.01
20:56 30.01
21:54 30.01
21:56 30.01
22:20 30.01
22:56 30.01
23:52 30.01
23:56 30.01
00:56 31.01
01:56 31.01
02:56 31.01
03:56 31.01
04:22 31.01
04:56 31.01
05:25 31.01
05:30 31.01
05:56 31.01
06:56 31.01
07:56 31.01
Ветер
(напр.,м/с)
Видим. Явления Облачность Т
(С)
Тd
(С)
f
(%)
Тe
(С)
Тes
(С)
Комфортность P
(гПа)
Po
(гПа)
Тmin
(С)
Tmax
(С)
R
(мм)
R24
(мм)
S
(см)
штиль 0 16 км 8/8 1470 м +6.7 -1.1 57 +6 +6 1017.1 1007.6
Ю 2 16 км 10/10 1470 м +5.6 -1.1 62 +4 +4 1017.5 1007.9
ЮВ 2 16 км ясно 0.0 -1.7 88 -4 -4 1017.4 1007.9
штиль 0 16 км ясно -2.2 -3.3 92 -3 -3 1017.6 1007.9
штиль 0 16 км ясно -3.3 -4.4 92 -4 -4 1017.5 1007.9 -3.3 +7.2
штиль 0 16 км 2/2 1950 м -2.8 -3.9 92 -4 -4 1017.9 1008.3
штиль 0 16 км ясно -3.3 -3.9 96 -5 -5 1018.4 1008.9
штиль 0 16 км ясно -4.4 -5.0 96 -6 -6 1018.9 1009.3
СЗ 2 16 км ясно -3.9 -4.4 96 -8 -8 1019.6 1010.3
штиль 0 16 км ясно -2.8 -3.3 96 -4 -4 1020.4 1010.9
штиль 0 16 км ясно -5.0 -6.1 92 -6 -6 1021.8 1012.3 -5.0 -2.2
штиль 0 16 км 8/8 1080 м -3.9 -5.0 92 -5 -5 1022.0 1012.3
штиль 0 16 км 10/10 900 м -1.7 -2.8 92 -3 -3 1022.6 1013.0
штиль 0 16 км 10/10 840 м -1.0 -2.0 93 -2 -2 1013.0
штиль 0 16 км 10/10 900 м 0.0 -1.0 93 -1 -1 1013.0
СВ 2 16 км 10/10 1050 м +1.1 -1.7 82 -2 -2 1022.8 1013.3
ЮВ 2 16 км 10/10 930 м +1.7 -2.2 75 -1 -1 1022.6 1013.0
ЮВ 3 16 км 10/10 1110 м +2.2 -3.3 67 -2 -2 1022.1 1012.3
ЮВ 3 16 км 8/8 1110 m
[Ac]
+2.8 -2.2 70 -1 0 1020.7 1010.9 -5.6 +2.8
ЮВ 3 16 км 10/2 1020 m
[Ac]
+2.2 -1.7 75 -2 -1 1019.4 1009.6
ЮВ 3 16 км 10/10 900 м +2.8 -1.7 72 -1 -1 1019.7 1009.9
ЮВ 3 16 км 10/10 570 м +2.0 -3.0 69 -2 -2 1009.9
ЮВ 3 16 км 10/10 570 м +1.7 -2.8 72 -2 -2 1019.6 1009.9
ЮВ 2 16 км 10/10 570 м +2.0 -3.0 69 -1 -1 1009.9
штиль 0 16 км 10/10 570 м +1.7 -2.8 72 +1 +1 1020.0 1010.3
штиль 0 16 км слабый дождь 10/10 450 m
[Ns]
+1.1 -1.7 82 0 0 1019.7 1009.9
штиль 0 16 км слабый дождь 10/10 450 m
[Ns]
+1.0 -1.0 86 0 0 1009.9
штиль 0 16 км слабый дождь 10/10 600 m
[Ns]
0.0 -1.7 88 -1 -1 1019.1 1009.6 +3.3
штиль 0 16 км 10/10 1200 м -0.6 -1.1 96 -2 -2 1019.1 1009.6
штиль 0 16 км 10/10 720 м 0.0 -1.0 93 -1 -1 1009.3
СЗ 2 16 км неопределенные осадки 10/10 480 m
[Cb]
+0.6 -1.1 88 -3 -3 1019.0 1009.3
СЗ 3 16 км слабый дождь 10/10 360 m
[Ns]
+1.0 -1.0 86 -3 -3 1009.3
СЗ 3 16 км слабый дождь 10/10 360 m
[Ns]
+1.1 -0.6 88 -3 -3 1019.0 1009.6
СЗ 3 10 км слабый дождь, дымка 10/10 480 m
[Ns]
+1.0 -1.0 86 -3 -3 1009.6
СЗ 3 5 км слабый дождь, дымка 10/10 540 m
[Ns]
+0.6 -1.1 88 -4 -4 1019.1 1009.6
СЗ 4 14 км слабый дождь 10/10 870 m
[Ns]
+1.0 -1.0 86 -4 -4 1008.9
СЗ 4 13 км неопределенные осадки 10/10 870 m
[Cb]
0.0 -1.1 92 -6 -6 1018.4 1008.9
З 3 8 км слабый снег, дымка 10/10 1320 m
[Ns]
0.0 -1.1 92 -5 -5 1018.0 1008.6 -0.6 +1.1 0.3
З 3 16 км неопределенные осадки 10/10 1320 m
[Cb]
0.0 -1.1 92 -5 -5 1018.2 1008.6
З 3 13 км слабый снег 10/10 1650 m
[Ns]
-0.6 -2.2 89 -5 -5 1018.5 1008.9
СЗ 3 14 км слабый снег 10/10 1800 m
[Ns]
-0.6 -2.2 89 -5 -5 1018.8 1009.3
СЗ 3 13 км слабый снег 10/10 750 m
[Ns]
-1.0 -3.0 86 -6 -6 1009.6
С 2 13 км слабый снег 10/10 750 m
[Ns]
-1.1 -3.3 85 -5 -5 1019.4 1009.9
В 3 5 км слабый снег, дымка 10/10 180 m
[Ns]
-2.0 -3.0 93 -7 -7 1009.9
В 2 5 км слабый снег, дымка 10/10 180 m
[Ns]
-2.0 -3.0 93 -6 -6 1009.9
СВ 3 16 км слабый снег 10/10 300 m
[Ns]
-2.2 -3.3 92 -7 -7 1020.0 1010.3
штиль 0 16 км 10/2 300 m
[Ac]
-2.2 -3.9 88 -3 -3 1020.4 1010.6 -2.2 0.3
ЮЗ 2 16 км 10/0 2250 m
[Ac]
-2.2 -3.3 92 -6 -6 1021.0 1011.3
Местоположение метеостанции Sanford Regional Airport: широта 43.4000 долгота -70.7167 высота над уровнем моря 74 м.
В архиве по умолчанию представлена погода в Санфорде за последние 1-2 суток. Обновление информации о фактической погоде в базе происходит ежечасно! Архивные данные за месяц целиком и за предыдущие месяцы Вы можете получить, выбрав интересующий диапазон дат из раскрывающегося списка и нажав кнопку "Ввод!".
Внимание! Архив погоды МЕТАР в базе сайта по станциям, не включенным в климатический монитор, хранится не более 60 дней. Нет смысла пытаться выбрать более раннюю дату.
*Определитесь, кто Вы:
Внимание! Время в таблицах - местное (без учета летнего времени). Для получения всемирного времени необходимо вычесть поправку, которая равна -5 ч.
Смотрите также архив погоды в соседних городах и на ближайших метеорологических станциях:
Партнеры нашего сайта:      
Пояснения к столбцам:
  • Ветер - указаны скорость ветра в м/с - средняя за 10 мин, порывы в срок и между сроками (в фигурных скобках) и направление, откуда дует ветер: С - северный,
  • СВ - северо-восточный, В - восточный, ЮВ - юго-восточный, Ю - южный, ЮЗ - юго-западный, З - западный, СЗ - северо-западный.
  • Видимость - горизонтальная дальность видимости в метрах или километрах. При видимости от 1 до 10 км при отсутствии осадков обычно наблюдается дымка, при ухудшении видимости до 1 км и менее - туман. В сухую погоду видимость может ухудшаться дымом, пылью или мглою.
  • Явления - указаны атмосферные явления, наблюдавшиеся в срок или в последний час перед сроком; фигурными скобками обозначены явления, наблюдавшиеся между сроками (за 1-3 часа до срока); квадратными скобками обозначены град или гололедные отложения с указанием их диаметра в мм.
  • Облачность - указаны через наклонную черту общая и нижняя облачность в баллах и высота нижней границы облаков в метрах; квадратными скобками обозначены формы облаков: Ci - перистые, Cs - перисто-слоистые, Cc - перисто-кучевые, Ac - высококучевые, As - высокослоистые, Sc - слоисто-кучевые, Ns - слоисто-дождевые, Cu - кучевые, Cb - кучево-дождевые. Подробнее классификацию облаков см. в Атласе облаков (PDF).
  • T - Температура воздуха - температура, измеренная на высоте 2 м над землей.
  • Td - Температура точки росы - температура, при понижении до которой содержащийся в воздухе водяной пар достигнет насыщения.
  • f - Относительная влажность воздуха - влажноcть воздуха, измеренная на высоте 2 м над землей.
  • Te - Эффективная температура - температура, которую ощущает одетый по сезону человек в тени. Характеристика душности погоды. При расчете учитывается влияние влажности воздуха и скорости ветра на теплоощущения человека.
  • Tes - Эффективная температура на солнце - температура, которую ощущает человек, с поправкой на солнечный нагрев. Характеристика знойности погоды. Зависит от высоты солнца над горизонтом, облачности и скорости ветра. Ночью, в пасмурную погоду, а также при ветре 12 м/с и более поправка равна нулю.
  • P - Атмосферное давление - приведенное к уровню моря атмосферное давление.
  • Po - Атмосферное давление - измеренное на уровне метеостанции атмосферное давление.
  • Tmin - Минимальная температура - минимум температуры воздуха на высоте 2 м над землей.
  • Tmax - Максимальная температура - максимум температуры воздуха на высоте 2 м над землей.
  • R - Количество осадков - Количество выпавших осадков за период времени, мм. При наведении курсора мыши на число - период времени, за который выпало указанное количество осадков.
  • R24 - Количество осадков - Количество выпавших осадков за 24 часа, мм.
  • S - Снежный покров - Высота снежного покрова, см. При наведении курсора мыши на число - состояние снежного покрова и степень покрытия местности в баллах.